Regional Weather Roundup
Issued by NWS

Home | Current Version | Previous Version | Text Only | Print | Product List | Glossary On
Versions: 1 2 3 4 5 6 7 8 9 10 11 12 13 14 15 16 17 18 19 20 21 22 23 24 25 26 27 28 29 30 31 32 33 34 35 36 37 38 39 40 41 42 43 44 45 46 47 48 49 50
000
ASUS43 KLOT 262010
RWRIL

ILLINOIS REGIONAL WEATHER ROUNDUP
NATIONAL WEATHER SERVICE CHICAGO/ROMEOVILLE IL
300 PM CDT SAT JUL 26 2014

NOTE: "FAIR" INDICATES FEW OR NO CLOUDS BELOW 12,000 FEET WITH NO
SIGNIFICANT WEATHER AND/OR OBSTRUCTIONS TO VISIBILITY.

* THESE STATIONS ARE NOT UNDER NWS QUALITY CONTROL. THEY ALSO MAY NOT
  REPORT WEATHER SUCH AS PRECIPITATION OR FOG.

ILZ001-002-007-009-015-016-024-262100-
NORTHWEST ILLINOIS

CITY           SKY/WX    TMP DP  RH WIND       PRES   REMARKS
MOLINE         CLOUDY    79  70  74 N6        29.85R HX  82
STERLING*      CLOUDY    79  70  73 N3        29.86R HX  81
SAVANNA*       CLOUDY    81  69  67 SW5       29.85R HX  84
$$

ILZ003-004-008-010-011-017-018-262100-
NORTH CENTRAL ILLINOIS

CITY           SKY/WX    TMP DP  RH WIND       PRES   REMARKS
ROCKFORD       CLOUDY    81  68  64 SW5       29.84S HX  84
FREEPORT*      CLOUDY    78  71  79 CALM      29.87S HX  80
ROCHELLE*      CLOUDY    79  69  72 SW5       29.85R HX  81
DE KALB*       CLOUDY    77  69  76 CALM      29.85R
PERU*          CLOUDY    77  70  79 SW7       29.82R
$$

ILZ005-006-012>014-019>023-262100-
NORTHEAST ILLINOIS

CITY           SKY/WX    TMP DP  RH WIND       PRES   REMARKS
CHICAGO-OHARE  CLOUDY    82  66  58 W5        29.81R HX  84
CHICAGO-MIDWAY PTSUNNY   83  70  64 SW8       29.80R HX  87
AURORA         CLOUDY    80  69  69 W7        29.83R HX  83
LANSING*       PTSUNNY   79  68  69 S10       29.81S HX  81
JOLIET*        PTSUNNY   77  69  74 S8        29.82S
WAUKEGAN       CLOUDY    76  64  66 E6        29.82F
DUPAGE AIRPORT PTSUNNY   83  68  60 CALM      29.81R HX  86
KANKAKEE*      CLOUDY    79  73  80 S8        29.83F HX  83
WHEELING       CLOUDY    81  66  60 NE7       29.83R HX  83
MORRIS*        CLOUDY    78  71  77 S7        29.80F HX  81
ROMEOVILLE*    PTSUNNY   79  68  69 S6        29.81F HX  81
NORTHERLY ISL    N/A     71  65  81 E3          N/A
$$

LMZ740>746-262100-
SOUTHERN LAKE MICHIGAN

STATION/POSITION SKY/WX   TEMP    WIND        PRES    VSBY  WAVE
                          AIR SEA DIR/SP/G                  HT/PER
                          (F)     (DEG/KT/KT) (MB)    (MI)  (FT/S)
SOUTHERN BUOY              65 63  190/  2/  4 1010.2F         1
WAUKEGAN HARBOR            74     170/  3/  6   N/A
HARRISON CRIB              72     130/  6/  7   N/A
BURNHAM HARBOR             71      40/  3/  9   N/A
CALUMET HARBOR             76      80/  3/  5 1008.1R
MICHIGAN CITY              75     240/  1/  2   N/A
MICHIGAN CITY 6N           74 71  310/  2/  6   N/A           0
ST. JOSEPH                 69 66  330/  4/  6   N/A           1
$$

ILZ025>027-034>036-040-047-049-050-058-095>099-262100-
WEST-CENTRAL ILLINOIS

CITY           SKY/WX    TMP DP  RH WIND       PRES   REMARKS
QUINCY         LGT RAIN  81  77  88 W8        29.86S FOG     HX  88
GALESBURG*     CLOUDY    82  74  76 S8        29.84R HX  89
MACOMB*        CLOUDY    78  75  90 SW6       29.88R FOG     HX  80
JACKSONVILLE*  TSTM      85  77  76 W12       29.87R HX  96
PITTSFIELD*    TSTM      84  76  76 W8        29.88R HX  92
$$

ILZ028>032-037-038-041>044-048-051>054-059>061-262100-
CENTRAL ILLINOIS

CITY           SKY/WX    TMP DP  RH WIND       PRES   REMARKS
PONTIAC        CLOUDY    81  73  78 S10       29.82F HAZE    HX  85
DECATUR        CLOUDY    85  76  74 SW10      29.83F HX  94
PEORIA         CLOUDY    81  73  76 SE5       29.82F HX  86
LACON*         PTSUNNY   80  71  76 S6        29.80F HX  83
LINCOLN*       CLOUDY    83  75  75 CALM      29.79F HX  91
SPRINGFIELD    CLOUDY    86  77  74 SW5       29.82F HX  97
TAYLORVILLE    CLOUDY    86  77  74 SW3       29.82F HX  97
$$

ILZ033-039-045-046-055>057-062-063-262100-
EAST-CENTRAL ILLINOIS

CITY           SKY/WX    TMP DP  RH WIND       PRES   REMARKS
CHAMPAIGN      CLOUDY    83  76  79 SW6       29.84S HX  91
DANVILLE*      CLOUDY    79  74  86 W5        29.83R FOG     HX  82
RANTOUL*       CLOUDY    82  73  75 NW5       29.85F HX  87
MATTOON        CLOUDY    84  74  71 SW8       29.84F HX  91
PARIS*         CLOUDY    84  77  78 S9        29.83F HX  94
$$

ILZ079-100>102-262100-
SOUTHWEST ILLINOIS

CITY           SKY/WX    TMP DP  RH WIND       PRES   REMARKS
ALTON          MOSUNNY   95  75  52 S9        29.83F HX 107
BELLEVILLE     MOSUNNY   98  75  47 VRB5      29.83F HX 109
CAHOKIA*       MOSUNNY   99  70  38 W10G18    29.82F HX 106
SPARTA*        SUNNY     93  75  55 SW8G16    29.87F HX 104
$$

ILZ064>066-069>071-074>076-080>082-084>086-088>090-092>094-262100-
SOUTH-CENTRAL ILLINOIS

CITY           SKY/WX    TMP DP  RH WIND       PRES   REMARKS
CARBONDALE     MOSUNNY   91  77  63 S13       29.88F HX 104
CAIRO*         SUNNY     91  77  63 SW10      29.91F HX 105
EFFINGHAM*     PTSUNNY   89  71  55 SW10      29.84F HX  95
MARION         MOSUNNY   91  77  62 SW14      29.90F HX 105
MT. VERNON     MOSUNNY   91  75  59 SW14G20   29.87F HX 102
CENTRALIA*     MOSUNNY   95  73  49 SW13      29.85F HX 103
SALEM*         MOSUNNY   94  76  56 SW9G17    29.85F HX 107
METROPOLIS*    SUNNY     91  72  53 SW10      29.90F HX  97
$$

ILZ067-068-072-073-078-083-087-091-262100-
SOUTHEAST ILLINOIS

CITY           SKY/WX    TMP DP  RH WIND       PRES   REMARKS
LAWRENCEVILLE  PTSUNNY   88  76  67 SW12      29.86F HX  99
FLORA*         MOSUNNY   90  74  59 SW13      29.85F HX  99
FAIRFIELD*     SUNNY     91  79  66 SW9G17    29.86F HX 107
HARRISBURG*    SUNNY     88  76  67 S10       29.90F HX  99
ROBINSON*      CLOUDY    88  77  69 SW9       29.86F HX 100
CARMI*         SUNNY     91  79  66 S12       29.87F HX 107
$$

ABBREVIATIONS USED IN REMARKS
   TC - TEMPERATURE IN CELSIUS
  WCI - WIND CHILL INDEX
   HX - HEAT INDEX
  VSB - VISIBILITY
$$



USA.gov is the U.S. government's official web portal to all federal, state and local government web resources and services.